TimeCST,TemperatureF,Dew PointF,Humidity,Sea Level PressureIn,VisibilityMPH,Wind Direction,Wind SpeedMPH,Gust SpeedMPH,PrecipitationIn,Events,Conditions,WindDirDegrees,DateUTC
12:15 AM,40.3,28.4,63,30.14,10.0,Calm,Calm,-,N/A,,Clear,0,2013-01-31 06:15:00
12:35 AM,39.0,28.8,67,30.15,10.0,Calm,Calm,-,N/A,,Clear,0,2013-01-31 06:35:00
12:55 AM,37.8,29.1,71,30.15,10.0,Calm,Calm,-,N/A,,Clear,0,2013-01-31 06:55:00
1:15 AM,34.7,29.7,82,30.14,10.0,Calm,Calm,-,N/A,,Clear,0,2013-01-31 07:15:00
1:35 AM,34.2,30.6,87,30.16,10.0,Calm,Calm,-,N/A,,Clear,0,2013-01-31 07:35:00
1:55 AM,34.7,30.2,84,30.16,10.0,Calm,Calm,-,N/A,,Clear,0,2013-01-31 07:55:00
2:15 AM,36.5,29.7,76,30.16,10.0,Calm,Calm,-,N/A,,Clear,0,2013-01-31 08:15:00
2:35 AM,37.0,29.8,75,30.17,10.0,Calm,Calm,-,N/A,,Clear,0,2013-01-31 08:35:00
2:55 AM,33.8,30.0,86,30.17,10.0,Calm,Calm,-,N/A,,Clear,0,2013-01-31 08:55:00
3:15 AM,35.8,30.0,80,30.17,10.0,Calm,Calm,-,N/A,,Clear,0,2013-01-31 09:15:00
3:35 AM,36.9,30.0,76,30.18,10.0,Calm,Calm,-,N/A,,Clear,0,2013-01-31 09:35:00
3:55 AM,36.7,30.2,77,30.17,10.0,Calm,Calm,-,N/A,,Clear,0,2013-01-31 09:55:00
4:15 AM,36.9,30.2,77,30.18,10.0,Calm,Calm,-,N/A,,Clear,0,2013-01-31 10:15:00
4:35 AM,36.7,30.2,77,30.17,10.0,Calm,Calm,-,N/A,,Clear,0,2013-01-31 10:35:00
4:55 AM,36.7,30.2,77,30.17,10.0,Calm,Calm,-,N/A,,Clear,0,2013-01-31 10:55:00
5:15 AM,37.0,30.2,76,30.17,10.0,Calm,Calm,-,N/A,,Clear,0,2013-01-31 11:15:00
5:35 AM,36.9,30.0,76,30.17,10.0,Calm,Calm,-,N/A,,Clear,0,2013-01-31 11:35:00
5:55 AM,36.7,30.0,77,30.17,10.0,Calm,Calm,-,N/A,,Clear,0,2013-01-31 11:55:00
6:15 AM,36.5,30.0,77,30.17,10.0,Calm,Calm,-,N/A,,Clear,0,2013-01-31 12:15:00
6:35 AM,34.5,29.8,83,30.18,10.0,Calm,Calm,-,N/A,,Clear,0,2013-01-31 12:35:00
6:55 AM,35.2,30.0,81,30.18,10.0,Calm,Calm,-,N/A,,Clear,0,2013-01-31 12:55:00
7:15 AM,35.2,30.0,81,30.19,10.0,Calm,Calm,-,N/A,,Clear,0,2013-01-31 13:15:00
7:35 AM,32.7,29.8,89,30.20,10.0,Calm,Calm,-,N/A,,Clear,0,2013-01-31 13:35:00
7:55 AM,34.9,31.1,86,30.22,10.0,Calm,Calm,-,N/A,,Clear,0,2013-01-31 13:55:00
8:15 AM,38.8,32.0,76,30.23,10.0,Calm,Calm,-,N/A,,Clear,0,2013-01-31 14:15:00
8:35 AM,41.9,32.0,68,30.24,10.0,Calm,Calm,-,N/A,,Clear,0,2013-01-31 14:35:00
8:55 AM,43.9,31.1,61,30.25,10.0,Calm,Calm,-,N/A,,Clear,0,2013-01-31 14:55:00
9:15 AM,45.7,31.8,58,30.26,10.0,SSW,3.5,-,N/A,,Clear,210,2013-01-31 15:15:00
9:35 AM,46.8,31.3,55,30.27,10.0,SW,5.8,-,N/A,,Clear,220,2013-01-31 15:35:00
9:55 AM,49.1,30.7,49,30.26,10.0,Calm,Calm,-,N/A,,Clear,0,2013-01-31 15:55:00
10:15 AM,51.6,29.3,42,30.26,10.0,Calm,Calm,-,N/A,,Clear,0,2013-01-31 16:15:00
10:35 AM,54.0,28.4,37,30.26,10.0,WSW,6.9,-,N/A,,Clear,250,2013-01-31 16:35:00
10:55 AM,54.7,26.6,34,30.26,10.0,SW,12.7,16.1,N/A,,Clear,220,2013-01-31 16:55:00
11:15 AM,56.5,25.2,30,30.25,10.0,SW,10.4,-,N/A,,Clear,230,2013-01-31 17:15:00
11:35 AM,57.6,24.6,28,30.25,10.0,WSW,5.8,-,N/A,,Clear,240,2013-01-31 17:35:00
11:55 AM,58.8,23.9,26,30.24,10.0,WSW,9.2,-,N/A,,Clear,250,2013-01-31 17:55:00
12:15 PM,59.4,23.2,25,30.24,10.0,WSW,11.5,19.6,N/A,,Clear,250,2013-01-31 18:15:00
12:35 PM,60.6,23.7,24,30.23,10.0,SW,11.5,17.3,N/A,,Clear,220,2013-01-31 18:35:00
12:55 PM,60.8,22.1,23,30.22,10.0,WSW,10.4,16.1,N/A,,Clear,240,2013-01-31 18:55:00
1:15 PM,61.5,22.1,22,30.21,10.0,SW,10.4,16.1,N/A,,Clear,220,2013-01-31 19:15:00
1:35 PM,62.1,21.0,21,30.20,10.0,WSW,6.9,17.3,N/A,,Clear,250,2013-01-31 19:35:00
1:55 PM,62.4,21.6,21,30.19,10.0,SSW,13.8,18.4,N/A,,Clear,200,2013-01-31 19:55:00
2:15 PM,63.1,20.3,19,30.19,10.0,West,6.9,-,N/A,,Clear,260,2013-01-31 20:15:00
2:35 PM,63.7,20.8,19,30.18,10.0,SSW,12.7,-,N/A,,Clear,210,2013-01-31 20:35:00
2:55 PM,63.5,19.8,19,30.18,10.0,WSW,10.4,17.3,N/A,,Clear,240,2013-01-31 20:55:00
3:15 PM,64.2,21.0,19,30.17,10.0,SW,11.5,16.1,N/A,,Clear,230,2013-01-31 21:15:00
3:35 PM,64.0,19.4,18,30.17,10.0,SW,9.2,-,N/A,,Clear,220,2013-01-31 21:35:00
3:55 PM,63.5,19.0,18,30.17,10.0,SW,8.1,-,N/A,,Clear,220,2013-01-31 21:55:00
4:15 PM,63.5,20.7,19,30.17,10.0,SW,11.5,17.3,N/A,,Clear,220,2013-01-31 22:15:00
4:35 PM,63.0,20.5,20,30.17,10.0,SW,9.2,-,N/A,,Clear,230,2013-01-31 22:35:00
4:55 PM,62.4,21.4,21,30.17,10.0,SW,9.2,-,N/A,,Clear,220,2013-01-31 22:55:00
5:15 PM,61.2,21.7,22,30.17,10.0,SW,6.9,-,N/A,,Clear,220,2013-01-31 23:15:00
5:35 PM,58.8,23.0,25,30.17,10.0,Calm,Calm,-,N/A,,Clear,0,2013-01-31 23:35:00
5:55 PM,57.7,23.4,27,30.17,10.0,South,3.5,-,N/A,,Clear,190,2013-01-31 23:55:00
6:15 PM,56.8,23.7,28,30.17,10.0,Calm,Calm,-,N/A,,Clear,0,2013-02-01 00:15:00
6:35 PM,55.8,23.9,29,30.17,10.0,Calm,Calm,-,N/A,,Clear,0,2013-02-01 00:35:00
6:55 PM,54.7,24.4,31,30.19,10.0,Calm,Calm,-,N/A,,Clear,0,2013-02-01 00:55:00
7:15 PM,52.9,24.8,34,30.20,10.0,Calm,Calm,-,N/A,,Clear,0,2013-02-01 01:15:00
7:35 PM,48.0,26.6,43,30.21,10.0,Calm,Calm,-,N/A,,Clear,0,2013-02-01 01:35:00
7:55 PM,47.5,27.9,47,30.23,10.0,Calm,Calm,-,N/A,,Clear,0,2013-02-01 01:55:00
8:15 PM,45.1,30.0,55,30.23,10.0,Calm,Calm,-,N/A,,Clear,0,2013-02-01 02:15:00
8:35 PM,44.6,30.6,58,30.24,10.0,Calm,Calm,-,N/A,,Clear,0,2013-02-01 02:35:00
8:55 PM,43.9,31.3,61,30.25,10.0,Calm,Calm,-,N/A,,Clear,0,2013-02-01 02:55:00
9:15 PM,43.0,30.7,62,30.26,10.0,Calm,Calm,-,N/A,,Clear,0,2013-02-01 03:15:00
9:35 PM,42.1,32.0,67,30.26,10.0,Calm,Calm,-,N/A,,Clear,0,2013-02-01 03:35:00
9:55 PM,43.2,31.6,64,30.26,10.0,Calm,Calm,-,N/A,,Clear,0,2013-02-01 03:55:00
10:15 PM,48.7,27.0,43,30.27,10.0,Calm,Calm,-,N/A,,Clear,0,2013-02-01 04:15:00
10:35 PM,48.7,27.0,43,30.26,10.0,Calm,Calm,-,N/A,,Clear,0,2013-02-01 04:35:00
10:55 PM,48.9,28.0,44,30.27,10.0,Calm,Calm,-,N/A,,Clear,0,2013-02-01 04:55:00
11:15 PM,49.5,28.0,44,30.26,10.0,SSW,5.8,-,N/A,,Clear,210,2013-02-01 05:15:00
11:35 PM,49.3,28.0,44,30.27,10.0,SSW,6.9,-,N/A,,Clear,210,2013-02-01 05:35:00
11:55 PM,49.1,28.4,45,30.28,10.0,SW,5.8,-,N/A,,Clear,220,2013-02-01 05:55:00